"read_dt","SO2 (ppb)","flags","PMT voltage (V)","lamp voltage (V)","lamp intensity (Hz)","internal temp (C)","react chamber temp (C)","sample flow (l/min)","pres (mmHg)","SO2 bkg (ppb)","SO2 coefficient"
2017-03-30 00:00:00,1750E-3,5C000400,-0724,0837,11912,031.4,045.6,0.214,748.3,01.17,0.508
2017-03-30 00:01:00,1711E-3,5C000400,-0724,0837,12023,031.2,045.5,0.214,748.3,01.17,0.508
2017-03-30 00:02:00,1570E-3,5C000400,-0724,0837,12136,031.0,045.6,0.214,748.3,01.17,0.508
2017-03-30 00:03:00,1779E-3,5C000400,-0724,0838,12162,030.8,045.5,0.214,748.3,01.17,0.508
2017-03-30 00:04:00,1599E-3,5C000400,-0724,0838,12064,030.6,045.5,0.215,748.3,01.17,0.508
2017-03-30 00:05:00,1749E-3,5C000400,-0724,0837,12084,030.4,045.5,0.214,748.2,01.17,0.508
2017-03-30 00:06:00,1707E-3,5C000400,-0724,0837,12081,030.2,045.5,0.215,748.2,01.17,0.508
2017-03-30 00:07:00,1686E-3,5C000400,-0724,0837,12084,030.0,045.5,0.215,748.3,01.17,0.508
2017-03-30 00:08:00,1743E-3,5C000400,-0724,0837,12057,029.8,045.5,0.215,748.1,01.17,0.508
2017-03-30 00:09:00,1850E-3,5C000400,-0724,0837,12028,029.7,045.5,0.216,748.0,01.17,0.508
2017-03-30 00:10:00,1685E-3,5C000400,-0724,0836,11981,029.5,045.5,0.216,748.1,01.17,0.508
2017-03-30 00:11:00,1664E-3,5C000400,-0724,0837,12143,029.4,045.5,0.216,747.9,01.17,0.508
2017-03-30 00:12:00,1669E-3,5C000400,-0724,0836,12149,029.3,045.5,0.217,748.0,01.17,0.508
2017-03-30 00:13:00,1613E-3,5C000400,-0724,0836,12013,029.3,045.5,0.217,747.8,01.17,0.508
2017-03-30 00:14:00,1779E-3,5C000400,-0724,0837,12099,029.3,045.5,0.217,747.8,01.17,0.508
2017-03-30 00:15:00,1701E-3,5C000400,-0724,0837,12142,029.3,045.5,0.217,747.8,01.17,0.508
2017-03-30 00:16:00,1765E-3,5C000400,-0724,0837,12047,029.4,045.5,0.217,747.9,01.17,0.508
2017-03-30 00:17:00,1708E-3,5C000400,-0724,0837,12132,029.5,045.5,0.217,748.0,01.17,0.508
2017-03-30 00:18:00,1739E-3,5C000400,-0724,0836,12011,029.6,045.5,0.218,748.0,01.17,0.508
2017-03-30 00:19:00,1725E-3,5C000400,-0724,0837,12024,029.8,045.5,0.218,748.0,01.17,0.508
2017-03-30 00:20:00,1761E-3,5C000400,-0724,0837,12030,029.9,045.5,0.218,748.0,01.17,0.508
2017-03-30 00:21:00,1729E-3,5C000400,-0724,0838,12073,030.0,045.5,0.218,748.1,01.17,0.508
2017-03-30 00:22:00,1684E-3,5C000400,-0724,0837,11953,030.1,045.5,0.218,748.1,01.17,0.508
2017-03-30 00:23:00,1858E-3,5C000400,-0724,0837,12033,030.2,045.5,0.218,748.0,01.17,0.508
2017-03-30 00:24:00,1681E-3,5C000400,-0724,0838,12007,030.3,045.5,0.218,748.0,01.17,0.508
2017-03-30 00:25:00,1831E-3,5C000400,-0724,0837,12050,030.4,045.5,0.218,748.0,01.17,0.508
2017-03-30 00:26:00,1631E-3,5C000400,-0724,0838,11878,030.5,045.5,0.217,748.0,01.17,0.508
2017-03-30 00:27:00,1699E-3,5C000400,-0724,0837,12016,030.6,045.5,0.217,748.0,01.17,0.508
2017-03-30 00:28:00,1651E-3,5C000400,-0724,0838,12119,030.7,045.5,0.217,748.0,01.17,0.508
2017-03-30 00:29:00,1741E-3,5C000400,-0724,0838,12043,030.8,045.5,0.217,747.9,01.17,0.508
2017-03-30 00:30:00,1800E-3,5C000400,-0724,0837,11843,030.9,045.5,0.216,747.9,01.17,0.508
2017-03-30 00:31:00,1611E-3,5C000400,-0724,0838,11937,031.0,045.5,0.216,747.9,01.17,0.508
2017-03-30 00:32:00,1823E-3,5C000400,-0724,0838,12064,031.0,045.6,0.216,747.9,01.17,0.508
2017-03-30 00:33:00,1580E-3,5C000400,-0724,0837,12219,031.1,045.6,0.216,747.8,01.17,0.508
2017-03-30 00:34:00,1776E-3,5C000400,-0724,0838,12066,031.2,045.6,0.216,747.8,01.17,0.508
2017-03-30 00:35:00,1662E-3,5C000400,-0724,0838,12061,031.3,045.6,0.215,747.8,01.17,0.508
2017-03-30 00:36:00,1686E-3,5C000400,-0724,0837,11976,031.3,045.6,0.215,747.8,01.17,0.508
2017-03-30 00:37:00,1699E-3,5C000400,-0724,0838,12220,031.4,045.6,0.215,747.7,01.17,0.508
2017-03-30 00:38:00,1816E-3,5C000400,-0724,0837,11942,031.3,045.6,0.215,747.8,01.17,0.508
2017-03-30 00:39:00,1733E-3,5C000400,-0724,0838,12111,031.3,045.6,0.215,747.7,01.17,0.508
2017-03-30 00:40:00,1764E-3,5C000400,-0724,0837,12006,031.2,045.5,0.215,747.7,01.17,0.508
2017-03-30 00:41:00,1648E-3,5C000400,-0724,0837,12193,031.0,045.5,0.215,747.8,01.17,0.508
2017-03-30 00:42:00,1727E-3,5C000400,-0724,0838,12113,030.9,045.5,0.215,747.7,01.17,0.508
2017-03-30 00:43:00,1745E-3,5C000400,-0724,0837,11950,030.7,045.5,0.215,747.8,01.17,0.508
2017-03-30 00:44:00,1826E-3,5C000400,-0724,0837,12037,030.6,045.5,0.215,747.8,01.17,0.508
2017-03-30 00:45:00,1866E-3,5C000400,-0724,0837,12052,030.3,045.5,0.215,747.8,01.17,0.508
2017-03-30 00:46:00,1619E-3,5C000400,-0724,0837,12078,030.1,045.5,0.215,747.8,01.17,0.508
2017-03-30 00:47:00,1736E-3,5C000400,-0724,0837,12026,029.9,045.5,0.216,747.7,01.17,0.508
2017-03-30 00:48:00,1717E-3,5C000400,-0724,0836,12089,029.7,045.5,0.215,747.8,01.17,0.508
2017-03-30 00:49:00,1807E-3,5C000400,-0724,0836,12049,029.6,045.5,0.216,747.8,01.17,0.508
2017-03-30 00:50:00,1812E-3,5C000400,-0724,0836,12036,029.5,045.5,0.216,747.8,01.17,0.508
2017-03-30 00:51:00,1546E-3,5C000400,-0724,0836,11995,029.4,045.5,0.216,747.8,01.17,0.508
2017-03-30 00:52:00,1559E-3,5C000400,-0724,0835,12040,029.3,045.5,0.217,747.8,01.17,0.508
2017-03-30 00:53:00,1652E-3,5C000400,-0724,0837,12108,029.3,045.5,0.217,747.8,01.17,0.508
2017-03-30 00:54:00,1785E-3,5C000400,-0724,0836,12054,029.2,045.5,0.217,747.7,01.17,0.508
2017-03-30 00:55:00,1694E-3,5C000400,-0724,0837,12251,029.3,045.5,0.218,747.7,01.17,0.508
2017-03-30 00:56:00,1726E-3,5C000400,-0724,0836,11894,029.4,045.5,0.217,747.7,01.17,0.508
2017-03-30 00:57:00,1694E-3,5C000400,-0724,0837,12002,029.5,045.5,0.218,747.7,01.17,0.508
2017-03-30 00:58:00,1874E-3,5C000400,-0724,0837,12113,029.6,045.5,0.218,747.6,01.17,0.508
2017-03-30 00:59:00,1786E-3,5C000400,-0724,0837,11979,029.7,045.5,0.218,747.6,01.17,0.508
2017-03-30 01:00:00,1650E-3,5C000400,-0724,0837,11978,029.9,045.5,0.218,747.6,01.17,0.508
2017-03-30 01:01:00,1774E-3,5C000400,-0724,0837,11923,030.0,045.5,0.217,747.6,01.17,0.508
2017-03-30 01:02:00,1630E-3,5C000400,-0724,0837,11996,030.1,045.5,0.218,747.5,01.17,0.508
2017-03-30 01:03:00,1673E-3,5C000400,-0724,0837,12087,030.2,045.6,0.217,747.5,01.17,0.508
2017-03-30 01:04:00,1797E-3,5C000400,-0724,0837,12099,030.3,045.5,0.217,747.5,01.17,0.508
2017-03-30 01:05:00,1870E-3,5C000400,-0724,0837,11995,030.4,045.5,0.217,747.5,01.17,0.508
2017-03-30 01:06:00,1690E-3,5C000400,-0724,0837,12066,030.5,045.5,0.217,747.5,01.17,0.508
2017-03-30 01:07:00,1679E-3,5C000400,-0724,0837,12029,030.6,045.5,0.217,747.5,01.17,0.508
2017-03-30 01:08:00,1606E-3,5C000400,-0724,0837,12012,030.6,045.5,0.217,747.5,01.17,0.508
2017-03-30 01:09:00,1607E-3,5C000400,-0724,0837,12136,030.6,045.5,0.216,747.4,01.17,0.508
2017-03-30 01:10:00,1711E-3,5C000400,-0724,0837,12111,030.5,045.5,0.216,747.4,01.17,0.508
2017-03-30 01:11:00,1599E-3,5C000400,-0724,0837,12012,030.5,045.5,0.217,747.4,01.17,0.508
2017-03-30 01:12:00,1728E-3,5C000400,-0724,0837,12156,030.3,045.5,0.216,747.4,01.17,0.508
2017-03-30 01:13:00,1717E-3,5C000400,-0724,0837,12193,030.2,045.5,0.216,747.4,01.17,0.508
2017-03-30 01:14:00,1734E-3,5C000400,-0724,0837,12049,030.0,045.5,0.216,747.3,01.17,0.508
2017-03-30 01:15:00,1783E-3,5C000400,-0724,0836,12024,029.8,045.5,0.217,747.4,01.17,0.508
2017-03-30 01:16:00,1732E-3,5C000400,-0724,0836,11975,029.7,045.5,0.217,747.4,01.17,0.508
2017-03-30 01:17:00,1630E-3,5C000400,-0724,0836,12021,029.5,045.5,0.217,747.4,01.17,0.508
2017-03-30 01:18:00,1766E-3,5C000400,-0724,0836,11966,029.3,045.5,0.217,747.4,01.17,0.508
2017-03-30 01:19:00,1677E-3,5C000400,-0724,0837,11964,029.2,045.5,0.217,747.4,01.17,0.508
2017-03-30 01:20:00,1870E-3,5C000400,-0724,0836,12051,029.1,045.5,0.217,747.3,01.17,0.508
2017-03-30 01:21:00,1764E-3,5C000400,-0724,0837,11983,029.0,045.5,0.218,747.3,01.17,0.508
2017-03-30 01:22:00,1701E-3,5C000400,-0724,0837,12052,028.9,045.5,0.217,747.3,01.17,0.508
2017-03-30 01:23:00,1565E-3,5C000400,-0724,0837,11963,028.9,045.5,0.218,747.2,01.17,0.508
2017-03-30 01:24:00,1661E-3,5C000400,-0724,0837,12122,028.9,045.5,0.218,747.2,01.17,0.508
2017-03-30 01:25:00,1727E-3,5C000400,-0724,0836,12120,028.9,045.5,0.219,747.2,01.17,0.508
2017-03-30 01:26:00,1727E-3,5C000400,-0724,0836,11971,029.0,045.5,0.219,747.2,01.17,0.508
2017-03-30 01:27:00,1671E-3,5C000400,-0724,0836,12160,029.1,045.5,0.219,747.1,01.17,0.508
2017-03-30 01:28:00,1834E-3,5C000400,-0724,0836,12046,029.2,045.5,0.219,747.1,01.17,0.508
2017-03-30 01:29:00,1644E-3,5C000400,-0724,0838,11896,029.4,045.5,0.219,747.1,01.17,0.508
2017-03-30 01:30:00,1695E-3,5C000400,-0724,0837,11989,029.5,045.5,0.219,747.0,01.17,0.508
2017-03-30 01:31:00,1791E-3,5C000400,-0724,0837,11902,029.6,045.5,0.218,747.0,01.17,0.508
2017-03-30 01:32:00,1761E-3,5C000400,-0724,0837,11963,029.8,045.5,0.219,747.0,01.17,0.508
2017-03-30 01:33:00,1684E-3,5C000400,-0724,0837,12072,029.9,045.5,0.218,747.0,01.17,0.508
2017-03-30 01:34:00,1807E-3,5C000400,-0724,0837,12077,030.1,045.5,0.218,747.1,01.17,0.508
2017-03-30 01:35:00,1868E-3,5C000400,-0724,0837,12056,030.2,045.5,0.218,747.1,01.17,0.508
2017-03-30 01:36:00,1731E-3,5C000400,-0724,0837,11955,030.3,045.5,0.218,747.1,01.17,0.508
2017-03-30 01:37:00,1719E-3,5C000400,-0724,0837,12060,030.3,045.5,0.217,747.1,01.17,0.508
2017-03-30 01:38:00,1785E-3,5C000400,-0724,0838,12129,030.4,045.5,0.218,747.1,01.17,0.508
2017-03-30 01:39:00,1684E-3,5C000400,-0724,0837,12048,030.4,045.5,0.217,747.1,01.17,0.508
2017-03-30 01:40:00,1632E-3,5C000400,-0724,0837,11987,030.4,045.5,0.217,747.1,01.17,0.508
2017-03-30 01:41:00,1734E-3,5C000400,-0724,0836,12127,030.3,045.5,0.217,747.2,01.17,0.508
2017-03-30 01:42:00,1686E-3,5C000400,-0724,0837,12062,030.2,045.5,0.217,747.2,01.17,0.508
2017-03-30 01:43:00,1715E-3,5C000400,-0724,0837,12205,030.0,045.5,0.217,747.2,01.17,0.508
2017-03-30 01:44:00,1726E-3,5C000400,-0724,0837,12002,029.9,045.5,0.217,747.2,01.17,0.508
2017-03-30 01:45:00,1787E-3,5C000400,-0724,0837,12046,029.7,045.5,0.217,747.2,01.17,0.508
2017-03-30 01:46:00,1700E-3,5C000400,-0724,0837,12090,029.6,045.5,0.217,747.2,01.17,0.508
2017-03-30 01:47:00,1725E-3,5C000400,-0724,0837,12144,029.4,045.5,0.217,747.2,01.17,0.508
2017-03-30 01:48:00,1675E-3,5C000400,-0724,0837,12102,029.3,045.5,0.217,747.2,01.17,0.508
2017-03-30 01:49:00,1703E-3,5C000400,-0724,0837,11908,029.1,045.5,0.217,747.1,01.17,0.508
2017-03-30 01:50:00,1648E-3,5C000400,-0724,0836,11885,029.0,045.5,0.218,747.1,01.17,0.508
2017-03-30 01:51:00,1643E-3,5C000400,-0724,0837,12025,028.9,045.5,0.218,747.1,01.17,0.508
2017-03-30 01:52:00,1608E-3,5C000400,-0724,0836,12036,028.9,045.5,0.218,747.1,01.17,0.508
2017-03-30 01:53:00,1837E-3,5C000400,-0724,0836,12176,028.8,045.5,0.218,747.0,01.17,0.508
2017-03-30 01:54:00,1732E-3,5C000400,-0724,0835,12034,028.8,045.5,0.219,747.0,01.17,0.508
2017-03-30 01:55:00,1581E-3,5C000400,-0724,0836,12070,028.8,045.5,0.219,747.0,01.17,0.508
2017-03-30 01:56:00,1773E-3,5C000400,-0724,0836,12101,028.8,045.5,0.219,747.0,01.17,0.508
2017-03-30 01:57:00,1599E-3,5C000400,-0724,0836,12083,029.0,045.5,0.219,746.9,01.17,0.508
2017-03-30 01:58:00,1665E-3,5C000400,-0724,0836,12126,029.1,045.5,0.219,746.9,01.17,0.508
2017-03-30 01:59:00,1842E-3,5C000400,-0724,0836,12081,029.2,045.5,0.219,746.9,01.17,0.508
2017-03-30 02:00:00,1738E-3,5C000400,-0724,0837,12187,029.3,045.5,0.219,746.9,01.17,0.508
2017-03-30 02:01:00,1662E-3,5C000400,-0724,0837,11930,029.5,045.5,0.219,746.8,01.17,0.508
2017-03-30 02:02:00,1649E-3,5C000400,-0724,0837,12040,029.6,045.5,0.219,746.8,01.17,0.508
2017-03-30 02:03:00,1727E-3,5C000400,-0724,0836,12090,029.7,045.5,0.219,746.8,01.17,0.508
2017-03-30 02:04:00,1739E-3,5C000400,-0724,0837,12198,029.7,045.5,0.218,746.8,01.17,0.508
2017-03-30 02:05:00,1785E-3,5C000400,-0724,0837,12122,029.7,045.5,0.219,746.8,01.17,0.508
2017-03-30 02:06:00,1701E-3,5C000400,-0724,0837,12149,029.6,045.5,0.218,746.9,01.17,0.508
2017-03-30 02:07:00,1820E-3,5C000400,-0724,0837,12054,029.6,045.5,0.218,746.9,01.17,0.508
2017-03-30 02:08:00,1805E-3,5C000400,-0724,0837,12077,029.5,045.5,0.218,746.8,01.17,0.508
2017-03-30 02:09:00,1715E-3,5C000400,-0724,0837,12114,029.3,045.5,0.218,746.9,01.17,0.508
2017-03-30 02:10:00,1670E-3,5C000400,-0724,0837,12068,029.3,045.5,0.218,746.8,01.17,0.508
2017-03-30 02:11:00,1671E-3,5C000400,-0724,0836,11866,029.2,045.5,0.218,746.8,01.17,0.508
2017-03-30 02:12:00,1764E-3,5C000400,-0724,0836,12056,029.1,045.5,0.218,746.8,01.17,0.508
2017-03-30 02:13:00,1718E-3,5C000400,-0724,0836,12091,029.0,045.5,0.218,746.8,01.17,0.508
2017-03-30 02:14:00,1812E-3,5C000400,-0724,0836,12242,028.9,045.5,0.219,746.7,01.17,0.508
2017-03-30 02:15:00,1696E-3,5C000400,-0724,0836,12119,028.9,045.5,0.219,746.7,01.17,0.508
2017-03-30 02:16:00,1767E-3,5C000400,-0724,0836,12008,028.8,045.5,0.219,746.6,01.17,0.508
2017-03-30 02:17:00,1581E-3,5C000400,-0724,0836,12074,028.8,045.5,0.219,746.5,01.17,0.508
2017-03-30 02:18:00,1653E-3,5C000400,-0724,0837,12125,028.8,045.5,0.219,746.5,01.17,0.508
2017-03-30 02:19:00,1740E-3,5C000400,-0724,0836,11999,028.9,045.5,0.219,746.5,01.17,0.508
2017-03-30 02:20:00,1787E-3,5C000400,-0724,0836,12116,028.9,045.5,0.219,746.5,01.17,0.508
2017-03-30 02:21:00,1701E-3,5C000400,-0724,0836,12148,029.0,045.5,0.219,746.5,01.17,0.508
2017-03-30 02:22:00,1833E-3,5C000400,-0724,0837,12093,029.0,045.5,0.219,746.5,01.17,0.508
2017-03-30 02:23:00,1828E-3,5C000400,-0724,0836,12011,029.0,045.5,0.219,746.5,01.17,0.508
2017-03-30 02:24:00,1703E-3,5C000400,-0724,0837,12117,029.0,045.5,0.220,746.5,01.17,0.508
2017-03-30 02:25:00,1781E-3,5C000400,-0724,0837,12106,029.0,045.5,0.219,746.4,01.17,0.508
2017-03-30 02:26:00,1651E-3,5C000400,-0724,0837,12064,029.0,045.5,0.219,746.5,01.17,0.508
2017-03-30 02:27:00,1694E-3,5C000400,-0724,0835,11949,029.0,045.5,0.219,746.5,01.17,0.508
2017-03-30 02:28:00,1684E-3,5C000400,-0724,0837,12040,028.9,045.5,0.219,746.5,01.17,0.508
2017-03-30 02:29:00,1742E-3,5C000400,-0724,0836,12137,028.9,045.5,0.219,746.5,01.17,0.508
2017-03-30 02:30:00,1630E-3,5C000400,-0724,0837,12183,028.8,045.5,0.219,746.5,01.17,0.508
2017-03-30 02:31:00,1708E-3,5C000400,-0724,0836,12026,028.8,045.5,0.219,746.5,01.17,0.508
2017-03-30 02:32:00,1792E-3,5C000400,-0724,0837,12049,028.7,045.5,0.219,746.4,01.17,0.508
2017-03-30 02:33:00,1675E-3,5C000400,-0724,0836,12087,028.7,045.5,0.219,746.5,01.17,0.508
2017-03-30 02:34:00,1730E-3,5C000400,-0724,0836,12005,028.6,045.5,0.220,746.4,01.17,0.508
2017-03-30 02:35:00,1725E-3,5C000400,-0724,0836,12136,028.6,045.5,0.220,746.5,01.17,0.508
2017-03-30 02:36:00,1698E-3,5C000400,-0724,0836,12080,028.6,045.5,0.220,746.5,01.17,0.508
2017-03-30 02:37:00,1778E-3,5C000400,-0724,0836,12043,028.6,045.5,0.219,746.4,01.17,0.508
2017-03-30 02:38:00,1608E-3,5C000400,-0724,0836,12098,028.7,045.5,0.220,746.4,01.17,0.508
2017-03-30 02:39:00,1681E-3,5C000400,-0724,0836,11975,028.7,045.5,0.220,746.3,01.17,0.508
2017-03-30 02:40:00,1738E-3,5C000400,-0724,0836,12166,028.6,045.5,0.220,746.4,01.17,0.508
2017-03-30 02:41:00,1713E-3,5C000400,-0724,0837,12140,028.7,045.5,0.220,746.4,01.17,0.508
2017-03-30 02:42:00,1743E-3,5C000400,-0724,0836,12119,028.7,045.5,0.219,746.3,01.17,0.508
2017-03-30 02:43:00,1718E-3,5C000400,-0724,0836,12187,028.7,045.5,0.220,746.4,01.17,0.508
2017-03-30 02:44:00,1745E-3,5C000400,-0724,0836,12119,028.7,045.5,0.220,746.3,01.17,0.508
2017-03-30 02:45:00,1734E-3,5C000400,-0724,0837,12041,028.7,045.5,0.220,746.4,01.17,0.508
2017-03-30 02:46:00,1735E-3,5C000400,-0724,0837,12050,028.7,045.5,0.220,746.2,01.17,0.508
2017-03-30 02:47:00,1789E-3,5C000400,-0724,0836,12084,028.7,045.5,0.219,746.3,01.17,0.508
2017-03-30 02:48:00,1737E-3,5C000400,-0724,0838,12066,028.7,045.5,0.220,746.2,01.17,0.508
2017-03-30 02:49:00,1656E-3,5C000400,-0724,0836,11994,028.7,045.5,0.220,746.2,01.17,0.508
2017-03-30 02:50:00,1680E-3,5C000400,-0724,0836,12073,028.8,045.5,0.219,746.2,01.17,0.508
2017-03-30 02:51:00,1798E-3,5C000400,-0724,0836,12128,028.8,045.5,0.220,746.2,01.17,0.508
2017-03-30 02:52:00,1774E-3,5C000400,-0724,0837,12086,028.7,045.5,0.220,746.2,01.17,0.508
2017-03-30 02:53:00,1745E-3,5C000400,-0724,0836,12071,028.7,045.5,0.220,746.1,01.17,0.508
2017-03-30 02:54:00,1715E-3,5C000400,-0724,0836,12021,028.7,045.5,0.220,746.2,01.17,0.508
2017-03-30 02:55:00,1726E-3,5C000400,-0724,0837,12096,028.7,045.5,0.219,746.1,01.17,0.508
2017-03-30 02:56:00,1752E-3,5C000400,-0724,0836,12104,028.7,045.5,0.219,746.2,01.17,0.508
2017-03-30 02:57:00,1777E-3,5C000400,-0724,0837,12080,028.7,045.5,0.220,746.2,01.17,0.508
2017-03-30 02:58:00,1879E-3,5C000400,-0724,0836,12110,028.7,045.5,0.220,746.1,01.17,0.508
2017-03-30 02:59:00,1725E-3,5C000400,-0724,0837,12006,028.7,045.5,0.219,746.2,01.17,0.508
2017-03-30 03:00:00,1696E-3,5C000400,-0724,0837,12126,028.7,045.5,0.220,746.1,01.17,0.508
2017-03-30 03:01:00,1758E-3,5C000400,-0724,0836,11970,028.7,045.5,0.220,746.1,01.17,0.508
2017-03-30 03:02:00,1724E-3,5C000400,-0724,0836,12088,028.7,045.5,0.219,746.0,01.17,0.508
2017-03-30 03:03:00,1864E-3,5C000400,-0724,0836,12034,028.7,045.5,0.220,746.0,01.17,0.508
2017-03-30 03:04:00,1646E-3,5C000400,-0724,0836,12046,028.7,045.5,0.220,746.0,01.17,0.508
2017-03-30 03:05:00,1767E-3,5C000400,-0724,0837,12149,028.7,045.5,0.220,746.0,01.17,0.508
2017-03-30 03:06:00,1657E-3,5C000400,-0724,0835,11819,028.6,045.5,0.220,746.0,01.17,0.508
2017-03-30 03:07:00,1805E-3,5C000400,-0724,0836,12052,028.6,045.5,0.220,745.9,01.17,0.508
2017-03-30 03:08:00,1623E-3,5C000400,-0724,0836,12059,028.6,045.5,0.220,745.9,01.17,0.508
2017-03-30 03:09:00,1823E-3,5C000400,-0724,0836,11845,028.6,045.5,0.219,745.8,01.17,0.508
2017-03-30 03:10:00,1785E-3,5C000400,-0724,0836,12056,028.6,045.5,0.220,745.8,01.17,0.508
2017-03-30 03:11:00,1615E-3,5C000400,-0724,0837,12145,028.6,045.5,0.220,745.8,01.17,0.508
2017-03-30 03:12:00,1811E-3,5C000400,-0724,0837,12106,028.6,045.5,0.220,745.8,01.17,0.508
2017-03-30 03:13:00,1777E-3,5C000400,-0724,0837,12115,028.6,045.5,0.220,745.8,01.17,0.508
2017-03-30 03:14:00,1713E-3,5C000400,-0724,0837,11965,028.7,045.5,0.220,745.8,01.17,0.508
2017-03-30 03:15:00,1763E-3,5C000400,-0724,0837,12094,028.6,045.5,0.220,745.8,01.17,0.508
2017-03-30 03:16:00,1699E-3,5C000400,-0724,0837,11962,028.7,045.5,0.220,745.7,01.17,0.508
2017-03-30 03:17:00,1773E-3,5C000400,-0724,0836,12145,028.6,045.5,0.220,745.8,01.17,0.508
2017-03-30 03:18:00,1678E-3,5C000400,-0724,0836,12062,028.6,045.5,0.220,745.7,01.17,0.508
2017-03-30 03:19:00,1692E-3,5C000400,-0724,0837,12080,028.6,045.5,0.220,745.8,01.17,0.508
2017-03-30 03:20:00,1687E-3,5C000400,-0724,0836,11979,028.6,045.5,0.220,745.7,01.17,0.508
2017-03-30 03:21:00,1900E-3,5C000400,-0724,0836,12155,028.5,045.5,0.220,745.7,01.17,0.508
2017-03-30 03:22:00,1780E-3,5C000400,-0724,0836,12096,028.5,045.5,0.220,745.6,01.17,0.508
2017-03-30 03:23:00,1715E-3,5C000400,-0724,0837,11864,028.4,045.5,0.220,745.6,01.17,0.508
2017-03-30 03:24:00,1630E-3,5C000400,-0724,0836,11998,028.4,045.5,0.220,745.5,01.17,0.508
2017-03-30 03:25:00,1770E-3,5C000400,-0724,0836,12063,028.4,045.5,0.221,745.5,01.17,0.508
2017-03-30 03:26:00,1814E-3,5C000400,-0724,0836,12140,028.5,045.5,0.220,745.5,01.17,0.508
2017-03-30 03:27:00,1647E-3,5C000400,-0724,0836,12187,028.5,045.5,0.220,745.5,01.17,0.508
2017-03-30 03:28:00,1598E-3,5C000400,-0724,0837,12128,028.5,045.5,0.220,745.4,01.17,0.508
2017-03-30 03:29:00,1856E-3,5C000400,-0724,0836,12031,028.5,045.5,0.220,745.5,01.17,0.508
2017-03-30 03:30:00,1648E-3,5C000400,-0724,0836,11969,028.6,045.5,0.220,745.5,01.17,0.508
2017-03-30 03:31:00,1724E-3,5C000400,-0724,0837,12173,028.6,045.5,0.220,745.4,01.17,0.508
2017-03-30 03:32:00,1837E-3,5C000400,-0724,0836,12029,028.6,045.5,0.220,745.5,01.17,0.508
2017-03-30 03:33:00,1800E-3,5C000400,-0724,0837,12055,028.6,045.5,0.220,745.5,01.17,0.508
2017-03-30 03:34:00,1696E-3,5C000400,-0724,0836,12136,028.6,045.5,0.220,745.4,01.17,0.508
2017-03-30 03:35:00,1771E-3,5C000400,-0724,0836,12116,028.6,045.5,0.220,745.5,01.17,0.508
2017-03-30 03:36:00,1810E-3,5C000400,-0724,0836,12161,028.6,045.5,0.220,745.5,01.17,0.508
2017-03-30 03:37:00,1703E-3,5C000400,-0724,0836,12012,028.6,045.5,0.220,745.4,01.17,0.508
2017-03-30 03:38:00,1825E-3,5C000400,-0724,0836,11989,028.6,045.5,0.220,745.5,01.17,0.508
2017-03-30 03:39:00,1734E-3,5C000400,-0724,0836,12060,028.6,045.5,0.220,745.4,01.17,0.508
2017-03-30 03:40:00,1696E-3,5C000400,-0724,0836,11938,028.6,045.5,0.220,745.4,01.17,0.508
2017-03-30 03:41:00,1669E-3,5C000400,-0724,0836,12093,028.6,045.5,0.220,745.4,01.17,0.508
2017-03-30 03:42:00,1710E-3,5C000400,-0724,0836,12099,028.5,045.5,0.220,745.4,01.17,0.508
2017-03-30 03:43:00,1728E-3,5C000400,-0724,0836,12114,028.5,045.5,0.220,745.3,01.17,0.508
2017-03-30 03:44:00,1801E-3,5C000400,-0724,0837,12232,028.5,045.5,0.220,745.3,01.17,0.508
2017-03-30 03:45:00,1754E-3,5C000400,-0724,0836,12136,028.5,045.5,0.220,745.3,01.17,0.508
2017-03-30 03:46:00,1716E-3,5C000400,-0724,0836,12129,028.5,045.5,0.220,745.2,01.17,0.508
2017-03-30 03:47:00,1782E-3,5C000400,-0724,0836,12022,028.5,045.5,0.220,745.2,01.17,0.508
2017-03-30 03:48:00,1790E-3,5C000400,-0724,0837,12167,028.5,045.5,0.220,745.2,01.17,0.508
2017-03-30 03:49:00,1766E-3,5C000400,-0724,0836,12069,028.4,045.5,0.220,745.2,01.17,0.508
2017-03-30 03:50:00,1749E-3,5C000400,-0724,0837,12048,028.5,045.5,0.220,745.2,01.17,0.508
2017-03-30 03:51:00,1744E-3,5C000400,-0724,0837,12003,028.5,045.5,0.220,745.2,01.17,0.508
2017-03-30 03:52:00,1672E-3,5C000400,-0724,0836,12012,028.5,045.5,0.220,745.2,01.17,0.508
2017-03-30 03:53:00,1831E-3,5C000400,-0724,0836,11933,028.5,045.5,0.220,745.2,01.17,0.508
2017-03-30 03:54:00,1819E-3,5C000400,-0724,0836,12078,028.5,045.5,0.220,745.1,01.17,0.508
2017-03-30 03:55:00,1642E-3,5C000400,-0724,0836,12109,028.6,045.5,0.220,745.1,01.17,0.508
2017-03-30 03:56:00,1710E-3,5C000400,-0724,0836,12117,028.5,045.5,0.220,745.1,01.17,0.508
2017-03-30 03:57:00,1877E-3,5C000400,-0724,0837,12118,028.5,045.5,0.220,745.1,01.17,0.508
2017-03-30 03:58:00,1822E-3,5C000400,-0724,0836,12001,028.6,045.5,0.220,745.1,01.17,0.508
2017-03-30 03:59:00,1909E-3,5C000400,-0724,0836,12044,028.5,045.5,0.220,745.1,01.17,0.508
2017-03-30 04:00:00,1839E-3,5C000400,-0724,0836,12119,028.5,045.5,0.220,745.1,01.17,0.508
2017-03-30 04:01:00,1708E-3,5C000400,-0724,0836,11974,028.4,045.5,0.220,745.1,01.17,0.508
2017-03-30 04:02:00,1626E-3,5C000400,-0724,0836,11997,028.4,045.5,0.220,745.0,01.17,0.508
2017-03-30 04:03:00,1808E-3,5C000400,-0724,0837,12072,028.4,045.4,0.220,745.1,01.17,0.508
2017-03-30 04:04:00,1715E-3,5C000400,-0724,0836,12108,028.3,045.4,0.220,745.0,01.17,0.508
2017-03-30 04:05:00,1804E-3,5C000400,-0724,0836,12136,028.3,045.4,0.220,745.0,01.17,0.508
2017-03-30 04:06:00,1804E-3,5C000400,-0724,0836,11967,028.2,045.5,0.220,745.0,01.17,0.508
2017-03-30 04:07:00,1659E-3,5C000400,-0724,0837,12088,028.2,045.5,0.220,745.0,01.17,0.508
2017-03-30 04:08:00,1750E-3,5C000400,-0724,0836,12054,028.2,045.5,0.220,745.0,01.17,0.508
2017-03-30 04:09:00,1765E-3,5C000400,-0724,0836,12063,028.2,045.5,0.220,745.1,01.17,0.508
2017-03-30 04:10:00,1651E-3,5C000400,-0724,0837,12157,028.2,045.5,0.221,745.0,01.17,0.508
2017-03-30 04:11:00,1789E-3,5C000400,-0724,0836,12019,028.3,045.5,0.220,745.0,01.17,0.508
2017-03-30 04:12:00,1737E-3,5C000400,-0724,0836,12086,028.3,045.5,0.221,745.0,01.17,0.508
2017-03-30 04:13:00,1749E-3,5C000400,-0724,0836,11905,028.3,045.5,0.220,745.0,01.17,0.508
2017-03-30 04:14:00,1768E-3,5C000400,-0724,0837,11994,028.4,045.5,0.221,745.0,01.17,0.508
2017-03-30 04:15:00,1727E-3,5C000400,-0724,0836,12188,028.4,045.5,0.220,745.0,01.17,0.508
2017-03-30 04:16:00,1638E-3,5C000400,-0724,0836,11931,028.4,045.5,0.221,744.9,01.17,0.508
2017-03-30 04:17:00,1662E-3,5C000400,-0724,0836,12090,028.4,045.5,0.220,744.9,01.17,0.508
2017-03-30 04:18:00,1690E-3,5C000400,-0724,0836,12068,028.4,045.5,0.220,744.8,01.17,0.508
2017-03-30 04:19:00,1767E-3,5C000400,-0724,0837,11952,028.4,045.5,0.220,744.8,01.17,0.508
2017-03-30 04:20:00,1584E-3,5C000400,-0724,0836,12128,028.3,045.5,0.220,744.8,01.17,0.508